Location: Newark
(32.9900°N, 111.5400°W)
Time: 10:03:52
(UTC+00:00)

Envisat - Pass Details

Date: 22 November 2019
Orbit: 764 x 766 km, 98.1° (Epoch: 08 December)

Event Time Altitude Azimuth Distance (km) Brightness Sun altitude
Rises 01:58:17 0° 181° (S) 3,216 6.4 -20.1°
Reaches altitude 10° 02:00:40 10° 188° (S) 2,293 5.7 -20.6°
Maximum altitude 02:05:30 46° 261° (W) 1,022 4.1 -21.6°
Drops below altitude 10° 02:10:23 10° 334° (NNW) 2,306 5.7 -22.6°
Sets 02:12:47 0° 340° (NNW) 3,235 6.4 -23.1°
